User: anonymous   Login
Location: Unspecified
(34.4480°N, 0.0000°E)
Time: 13:44:59
(UTC+00:00)
Language:

XW-2A - Orbit

View from above orbital plane
View from above orbital plane
View from above satellite
View from above satellite

Ground track
Ground track

The orbit data is extracted from the following two-line orbital elements,

1 40903U 15049E   20025.12838558  .00001372  00000-0  33485-4 0  9994
2 40903  97.3106  73.8491 0015125  70.1918   6.9626 15.42551759244223
Epoch (UTC): 25 January 2020 03:04:52
Eccentricity: 0.0015125
inclination: 97.3106°
perigee height: 428 km
apogee height: 449 km
right ascension of ascending node: 73.8491°
argument of perigee: 70.1918°
revolutions per day: 15.42551759
mean anomaly at epoch: 6.9626°
orbit number at epoch: 24422

The dashed part of the orbit path shows where the satellite is in the earth's shadow,  

DLR